Time,TemperatureF,DewpointF,PressureIn,WindDirection,WindDirectionDegrees,WindSpeedMPH,WindSpeedGustMPH,Humidity,HourlyPrecipIn,Conditions,Clouds,dailyrainin,SoftwareType,DateUTC
2013-01-03 00:03:00,45.0,45.0,-100.00,NNW,335,1.0,4.0,99,-99.99,,,-99.99,,2013-01-03 05:03:00,
2013-01-03 00:12:00,45.0,45.0,-100.00,ESE,115,1.0,2.0,99,-99.99,,,-99.99,,2013-01-03 05:12:00,
2013-01-03 00:23:00,45.0,45.0,-100.00,NW,320,0.0,1.0,99,-99.99,,,-99.99,,2013-01-03 05:23:00,
2013-01-03 00:33:00,45.0,45.0,-100.00,WNW,300,1.0,2.0,99,-99.99,,,-99.99,,2013-01-03 05:33:00,
2013-01-03 00:42:00,45.0,45.0,-100.00,North,355,1.0,3.0,99,-99.99,,,-99.99,,2013-01-03 05:42:00,
2013-01-03 00:52:00,45.0,45.0,-100.00,NNE,25,1.0,2.0,99,-99.99,,,-99.99,,2013-01-03 05:52:00,
2013-01-03 01:03:00,45.0,45.0,-100.00,East,80,4.0,4.0,99,-99.99,,,-99.99,,2013-01-03 06:03:00,
2013-01-03 01:12:00,45.0,45.0,-100.00,East,95,2.0,4.0,99,-99.99,,,-99.99,,2013-01-03 06:12:00,
2013-01-03 01:22:00,45.0,45.0,-100.00,ESE,105,1.0,4.0,99,-99.99,,,-99.99,,2013-01-03 06:22:00,
2013-01-03 01:33:00,45.0,45.0,-100.00,ENE,65,1.0,3.0,99,-99.99,,,-99.99,,2013-01-03 06:33:00,
2013-01-03 01:42:00,45.0,45.0,-100.00,NE,45,1.0,5.0,99,-99.99,,,-99.99,,2013-01-03 06:42:00,
2013-01-03 01:52:00,45.0,44.0,-100.00,ESE,105,3.0,7.0,98,-99.99,,,-99.99,,2013-01-03 06:52:00,
2013-01-03 02:02:00,45.0,44.0,-100.00,NE,50,2.0,5.0,98,-99.99,,,-99.99,,2013-01-03 07:02:00,
2013-01-03 02:12:00,45.0,44.0,-100.00,ENE,75,1.0,4.0,97,-99.99,,,-99.99,,2013-01-03 07:12:00,
2013-01-03 02:22:00,44.0,44.0,-100.00,ENE,70,1.0,4.0,99,-99.99,,,-99.99,,2013-01-03 07:22:00,
2013-01-03 02:33:00,44.0,44.0,-100.00,NE,40,1.0,4.0,99,-99.99,,,-99.99,,2013-01-03 07:33:00,
2013-01-03 02:42:00,44.0,44.0,-100.00,NNE,25,1.0,2.0,99,-99.99,,,-99.99,,2013-01-03 07:42:00,
2013-01-03 02:52:00,44.0,43.0,-100.00,NNE,30,1.0,2.0,99,-99.99,,,-99.99,,2013-01-03 07:52:00,
2013-01-03 03:02:00,44.0,43.0,-100.00,NE,55,2.0,4.0,99,-99.99,,,-99.99,,2013-01-03 08:02:00,
2013-01-03 03:12:00,44.0,43.0,-100.00,NE,55,3.0,4.0,99,-99.99,,,-99.99,,2013-01-03 08:12:00,
2013-01-03 03:22:00,44.0,43.0,-100.00,East,80,1.0,2.0,99,-99.99,,,-99.99,,2013-01-03 08:22:00,
2013-01-03 03:33:00,44.0,43.0,-100.00,ESE,110,1.0,2.0,99,-99.99,,,-99.99,,2013-01-03 08:33:00,
2013-01-03 03:43:00,43.0,43.0,-100.00,South,185,0.0,4.0,99,-99.99,,,-99.99,,2013-01-03 08:43:00,
2013-01-03 03:53:00,43.0,43.0,-100.00,ESE,120,2.0,3.0,99,-99.99,,,-99.99,,2013-01-03 08:53:00,
2013-01-03 04:03:00,43.0,43.0,-100.00,East,100,2.0,4.0,99,-99.99,,,-99.99,,2013-01-03 09:03:00,
2013-01-03 04:12:00,43.0,43.0,-100.00,SE,135,1.0,3.0,99,-99.99,,,-99.99,,2013-01-03 09:12:00,
2013-01-03 04:22:00,43.0,43.0,-100.00,SE,130,4.0,6.0,99,-99.99,,,-99.99,,2013-01-03 09:22:00,
2013-01-03 04:33:00,43.0,43.0,-100.00,SE,140,2.0,8.0,99,-99.99,,,-99.99,,2013-01-03 09:33:00,
2013-01-03 04:43:00,43.0,43.0,-100.00,NNE,25,3.0,5.0,99,-99.99,,,-99.99,,2013-01-03 09:43:00,
2013-01-03 04:52:00,43.0,43.0,-100.00,ENE,75,2.0,4.0,99,-99.99,,,-99.99,,2013-01-03 09:52:00,
2013-01-03 05:02:00,43.0,43.0,-100.00,NE,45,1.0,4.0,99,-99.99,,,-99.99,,2013-01-03 10:02:00,
2013-01-03 05:12:00,43.0,43.0,-100.00,North,10,1.0,2.0,99,-99.99,,,-99.99,,2013-01-03 10:12:00,
2013-01-03 05:23:00,43.0,43.0,-100.00,NE,35,1.0,4.0,99,-99.99,,,-99.99,,2013-01-03 10:23:00,
2013-01-03 05:33:00,43.0,43.0,-100.00,NNE,20,2.0,5.0,99,-99.99,,,-99.99,,2013-01-03 10:33:00,
2013-01-03 05:43:00,43.0,43.0,-100.00,NNE,25,2.0,5.0,99,-99.99,,,-99.99,,2013-01-03 10:43:00,
2013-01-03 05:52:00,43.0,42.0,-100.00,NE,55,5.0,9.0,99,-99.99,,,-99.99,,2013-01-03 10:52:00,
2013-01-03 06:03:00,43.0,42.0,-100.00,East,100,5.0,7.0,99,-99.99,,,-99.99,,2013-01-03 11:03:00,
2013-01-03 06:12:00,42.0,42.0,-100.00,East,100,2.0,6.0,99,-99.99,,,-99.99,,2013-01-03 11:12:00,
2013-01-03 06:23:00,42.0,42.0,-100.00,NE,35,2.0,4.0,99,-99.99,,,-99.99,,2013-01-03 11:23:00,
2013-01-03 06:33:00,42.0,41.0,-100.00,East,80,2.0,4.0,94,-99.99,,,-99.99,,2013-01-03 11:33:00,
2013-01-03 06:43:00,42.0,42.0,-100.00,NNE,30,0.0,4.0,99,-99.99,,,-99.99,,2013-01-03 11:43:00,
2013-01-03 06:53:00,42.0,42.0,-100.00,NE,45,1.0,3.0,99,-99.99,,,-99.99,,2013-01-03 11:53:00,
2013-01-03 07:03:00,42.0,42.0,-100.00,ENE,60,4.0,4.0,99,-99.99,,,-99.99,,2013-01-03 12:03:00,
2013-01-03 07:12:00,42.0,42.0,-100.00,NE,50,2.0,4.0,99,-99.99,,,-99.99,,2013-01-03 12:12:00,
2013-01-03 07:22:00,42.0,42.0,-100.00,NE,45,1.0,4.0,99,-99.99,,,-99.99,,2013-01-03 12:22:00,
2013-01-03 07:33:00,42.0,42.0,-100.00,NNE,20,1.0,4.0,99,-99.99,,,-99.99,,2013-01-03 12:33:00,
2013-01-03 07:42:00,42.0,42.0,-100.00,ENE,70,1.0,2.0,99,-99.99,,,-99.99,,2013-01-03 12:42:00,
2013-01-03 07:53:00,42.0,42.0,-100.00,NE,55,5.0,7.0,99,-99.99,,,-99.99,,2013-01-03 12:53:00,
2013-01-03 08:02:00,42.0,42.0,-100.00,ENE,75,3.0,6.0,98,-99.99,,,-99.99,,2013-01-03 13:02:00,
2013-01-03 08:13:00,42.0,42.0,-100.00,NNE,30,2.0,5.0,98,-99.99,,,-99.99,,2013-01-03 13:13:00,
2013-01-03 08:22:00,42.0,41.0,-100.00,NE,50,2.0,5.0,97,-99.99,,,-99.99,,2013-01-03 13:22:00,
2013-01-03 08:33:00,42.0,41.0,-100.00,NNE,15,2.0,4.0,96,-99.99,,,-99.99,,2013-01-03 13:33:00,
2013-01-03 08:42:00,42.0,41.0,-100.00,NE,35,2.0,4.0,95,-99.99,,,-99.99,,2013-01-03 13:42:00,
2013-01-03 08:52:00,42.0,41.0,-100.00,ENE,70,4.0,6.0,95,-99.99,,,-99.99,,2013-01-03 13:52:00,
2013-01-03 09:03:00,42.0,41.0,-100.00,NE,55,4.0,6.0,94,-99.99,,,-99.99,,2013-01-03 14:03:00,
2013-01-03 09:12:00,42.0,41.0,-100.00,NE,55,1.0,5.0,94,-99.99,,,-99.99,,2013-01-03 14:12:00,
2013-01-03 09:23:00,42.0,40.0,-100.00,NNE,15,1.0,5.0,92,-99.99,,,-99.99,,2013-01-03 14:23:00,
2013-01-03 09:33:00,42.0,40.0,-100.00,North,0,3.0,7.0,91,-99.99,,,-99.99,,2013-01-03 14:33:00,
2013-01-03 09:43:00,42.0,40.0,-100.00,NNE,15,6.0,9.0,90,-99.99,,,-99.99,,2013-01-03 14:43:00,
2013-01-03 09:53:00,42.0,40.0,-100.00,North,0,3.0,6.0,90,-99.99,,,-99.99,,2013-01-03 14:53:00,
2013-01-03 10:03:00,43.0,40.0,-100.00,NNE,30,4.0,6.0,90,-99.99,,,-99.99,,2013-01-03 15:03:00,
2013-01-03 10:12:00,43.0,40.0,-100.00,NE,50,1.0,6.0,90,-99.99,,,-99.99,,2013-01-03 15:12:00,
2013-01-03 10:23:00,43.0,40.0,-100.00,NNE,30,4.0,6.0,89,-99.99,,,-99.99,,2013-01-03 15:23:00,
2013-01-03 10:34:00,43.0,41.0,-100.00,North,10,3.0,6.0,90,-99.99,,,-99.99,,2013-01-03 15:34:00,
2013-01-03 10:43:00,43.0,40.0,-100.00,NE,55,3.0,6.0,90,-99.99,,,-99.99,,2013-01-03 15:43:00,
2013-01-03 10:53:00,43.0,40.0,-100.00,NNE,30,4.0,10.0,90,-99.99,,,-99.99,,2013-01-03 15:53:00,
2013-01-03 11:03:00,43.0,40.0,-100.00,NE,35,3.0,9.0,92,-99.99,,,-99.99,,2013-01-03 16:03:00,
2013-01-03 11:12:00,42.0,41.0,-100.00,NE,55,4.0,7.0,94,-99.99,,,-99.99,,2013-01-03 16:12:00,
2013-01-03 11:23:00,42.0,41.0,-100.00,NNE,30,2.0,5.0,94,-99.99,,,-99.99,,2013-01-03 16:23:00,
2013-01-03 11:33:00,43.0,41.0,-100.00,North,10,1.0,4.0,94,-99.99,,,-99.99,,2013-01-03 16:33:00,
2013-01-03 11:43:00,42.0,41.0,-100.00,NE,50,2.0,9.0,95,-99.99,,,-99.99,,2013-01-03 16:43:00,
2013-01-03 11:53:00,43.0,41.0,-100.00,North,350,4.0,6.0,95,-99.99,,,-99.99,,2013-01-03 16:53:00,
2013-01-03 12:03:00,43.0,42.0,-100.00,NE,50,3.0,6.0,96,-99.99,,,-99.99,,2013-01-03 17:03:00,
2013-01-03 12:13:00,43.0,42.0,-100.00,North,5,3.0,5.0,96,-99.99,,,-99.99,,2013-01-03 17:13:00,
2013-01-03 12:23:00,43.0,42.0,-100.00,NNE,15,4.0,6.0,96,-99.99,,,-99.99,,2013-01-03 17:23:00,
2013-01-03 12:33:00,43.0,42.0,-100.00,North,10,4.0,6.0,96,-99.99,,,-99.99,,2013-01-03 17:33:00,
2013-01-03 12:43:00,43.0,42.0,-100.00,NNE,15,4.0,8.0,96,-99.99,,,-99.99,,2013-01-03 17:43:00,
2013-01-03 12:53:00,43.0,42.0,-100.00,NNE,15,4.0,8.0,96,-99.99,,,-99.99,,2013-01-03 17:53:00,
2013-01-03 13:03:00,43.0,42.0,-100.00,NNE,15,1.0,6.0,97,-99.99,,,-99.99,,2013-01-03 18:03:00,
2013-01-03 13:13:00,43.0,42.0,-100.00,NE,35,3.0,6.0,99,-99.99,,,-99.99,,2013-01-03 18:13:00,
2013-01-03 13:22:00,43.0,43.0,-100.00,North,350,1.0,5.0,99,-99.99,,,-99.99,,2013-01-03 18:22:00,
2013-01-03 13:33:00,43.0,43.0,-100.00,NNE,15,1.0,4.0,99,-99.99,,,-99.99,,2013-01-03 18:33:00,
2013-01-03 13:43:00,43.0,43.0,-100.00,NNE,15,1.0,4.0,99,-99.99,,,-99.99,,2013-01-03 18:43:00,
2013-01-03 13:53:00,43.0,43.0,-100.00,NNW,335,1.0,4.0,99,-99.99,,,-99.99,,2013-01-03 18:53:00,
2013-01-03 14:03:00,44.0,43.0,-100.00,North,5,1.0,4.0,99,-99.99,,,-99.99,,2013-01-03 19:03:00,
2013-01-03 14:12:00,43.0,43.0,-100.00,NE,55,2.0,4.0,99,-99.99,,,-99.99,,2013-01-03 19:12:00,
2013-01-03 14:56:00,44.0,44.0,-100.00,ENE,70,4.0,5.0,98,-99.99,,,-99.99,,2013-01-03 19:56:00,
2013-01-03 15:03:00,44.0,44.0,-100.00,East,85,3.0,5.0,98,-99.99,,,-99.99,,2013-01-03 20:03:00,
2013-01-03 15:13:00,44.0,44.0,-100.00,East,80,6.0,8.0,98,-99.99,,,-99.99,,2013-01-03 20:13:00,
2013-01-03 15:23:00,44.0,44.0,-100.00,East,85,4.0,7.0,98,-99.99,,,-99.99,,2013-01-03 20:23:00,
2013-01-03 15:33:00,44.0,43.0,-100.00,ENE,70,6.0,9.0,96,-99.99,,,-99.99,,2013-01-03 20:33:00,
2013-01-03 15:42:00,45.0,43.0,-100.00,ENE,60,4.0,6.0,94,-99.99,,,-99.99,,2013-01-03 20:42:00,
2013-01-03 15:53:00,45.0,43.0,-100.00,ENE,75,4.0,6.0,93,-99.99,,,-99.99,,2013-01-03 20:53:00,
2013-01-03 16:03:00,45.0,43.0,-100.00,East,100,2.0,6.0,92,-99.99,,,-99.99,,2013-01-03 21:03:00,
2013-01-03 16:13:00,45.0,43.0,-100.00,East,90,3.0,6.0,91,-99.99,,,-99.99,,2013-01-03 21:13:00,
2013-01-03 16:23:00,45.0,43.0,-100.00,ENE,65,2.0,5.0,90,-99.99,,,-99.99,,2013-01-03 21:23:00,
2013-01-03 16:37:00,45.0,43.0,-100.00,ENE,65,1.0,4.0,90,-99.99,,,-99.99,,2013-01-03 21:37:00,
2013-01-03 16:50:00,45.0,43.0,-100.00,East,85,2.0,4.0,90,-99.99,,,-99.99,,2013-01-03 21:50:00,
2013-01-03 17:03:00,45.0,42.0,-100.00,East,90,2.0,3.0,90,-99.99,,,-99.99,,2013-01-03 22:03:00,
2013-01-03 17:12:00,45.0,42.0,-100.00,ENE,60,1.0,3.0,90,-99.99,,,-99.99,,2013-01-03 22:12:00,
2013-01-03 17:22:00,45.0,42.0,-100.00,ENE,75,1.0,3.0,90,-99.99,,,-99.99,,2013-01-03 22:22:00,
2013-01-03 17:33:00,44.0,42.0,-100.00,East,85,4.0,6.0,91,-99.99,,,-99.99,,2013-01-03 22:33:00,
2013-01-03 17:43:00,44.0,42.0,-100.00,East,85,2.0,5.0,93,-99.99,,,-99.99,,2013-01-03 22:43:00,
2013-01-03 17:52:00,44.0,42.0,-100.00,East,85,2.0,3.0,93,-99.99,,,-99.99,,2013-01-03 22:52:00,
2013-01-03 18:03:00,43.0,40.0,-100.00,NNE,20,0.0,2.0,91,-99.99,,,-99.99,,2013-01-03 23:03:00,
2013-01-03 18:12:00,42.0,41.0,-100.00,NNE,20,0.0,0.0,96,-99.99,,,-99.99,,2013-01-03 23:12:00,
2013-01-03 18:23:00,41.0,40.0,-100.00,SW,235,0.0,4.0,97,-99.99,,,-99.99,,2013-01-03 23:23:00,
2013-01-03 18:33:00,40.0,40.0,-100.00,SSW,200,1.0,4.0,99,-99.99,,,-99.99,,2013-01-03 23:33:00,
2013-01-03 18:43:00,40.0,39.0,-100.00,WNW,290,0.0,1.0,96,-99.99,,,-99.99,,2013-01-03 23:43:00,
2013-01-03 18:53:00,39.0,38.0,-100.00,NW,315,0.0,2.0,97,-99.99,,,-99.99,,2013-01-03 23:53:00,
2013-01-03 19:03:00,39.0,38.0,-100.00,East,95,0.0,2.0,97,-99.99,,,-99.99,,2013-01-04 00:03:00,
2013-01-03 19:13:00,37.0,37.0,-100.00,ESE,120,0.0,0.0,99,-99.99,,,-99.99,,2013-01-04 00:13:00,
2013-01-03 19:23:00,36.0,36.0,-100.00,WNW,285,4.0,6.0,99,-99.99,,,-99.99,,2013-01-04 00:23:00,
2013-01-03 19:33:00,38.0,33.0,-100.00,WNW,290,5.0,11.0,81,-99.99,,,-99.99,,2013-01-04 00:33:00,
2013-01-03 19:42:00,39.0,31.0,-100.00,NW,320,5.0,11.0,73,-99.99,,,-99.99,,2013-01-04 00:42:00,
2013-01-03 19:52:00,39.0,32.0,-100.00,East,90,2.0,6.0,75,-99.99,,,-99.99,,2013-01-04 00:52:00,
2013-01-03 20:02:00,38.0,34.0,-100.00,ENE,70,1.0,2.0,85,-99.99,,,-99.99,,2013-01-04 01:02:00,
2013-01-03 20:13:00,37.0,34.0,-100.00,NNW,345,0.0,2.0,87,-99.99,,,-99.99,,2013-01-04 01:13:00,
2013-01-03 20:22:00,37.0,33.0,-100.00,NW,310,1.0,3.0,84,-99.99,,,-99.99,,2013-01-04 01:22:00,
2013-01-03 20:33:00,38.0,30.0,-100.00,NW,320,5.0,9.0,72,-99.99,,,-99.99,,2013-01-04 01:33:00,
2013-01-03 20:42:00,38.0,30.0,-100.00,North,0,2.0,8.0,72,-99.99,,,-99.99,,2013-01-04 01:42:00,
2013-01-03 20:52:00,39.0,29.0,-100.00,NNW,330,4.0,8.0,68,-99.99,,,-99.99,,2013-01-04 01:52:00,
2013-01-03 21:02:00,38.0,28.0,-100.00,NW,315,4.0,8.0,67,-99.99,,,-99.99,,2013-01-04 02:02:00,
2013-01-03 21:12:00,38.0,28.0,-100.00,NW,305,6.0,10.0,67,-99.99,,,-99.99,,2013-01-04 02:12:00,
2013-01-03 21:22:00,39.0,29.0,-100.00,NW,315,6.0,14.0,67,-99.99,,,-99.99,,2013-01-04 02:22:00,
2013-01-03 21:33:00,38.0,28.0,-100.00,NNW,335,6.0,12.0,67,-99.99,,,-99.99,,2013-01-04 02:33:00,
2013-01-03 21:42:00,38.0,28.0,-100.00,West,280,4.0,10.0,67,-99.99,,,-99.99,,2013-01-04 02:42:00,
2013-01-03 21:52:00,38.0,28.0,-100.00,WNW,295,3.0,8.0,67,-99.99,,,-99.99,,2013-01-04 02:52:00,
2013-01-03 22:03:00,38.0,28.0,-100.00,WNW,300,5.0,10.0,67,-99.99,,,-99.99,,2013-01-04 03:03:00,
2013-01-03 22:12:00,38.0,28.0,-100.00,WNW,300,4.0,9.0,67,-99.99,,,-99.99,,2013-01-04 03:12:00,
2013-01-03 22:22:00,38.0,28.0,-100.00,NW,305,6.0,11.0,67,-99.99,,,-99.99,,2013-01-04 03:22:00,
2013-01-03 22:33:00,38.0,28.0,-100.00,WNW,295,4.0,8.0,68,-99.99,,,-99.99,,2013-01-04 03:33:00,
2013-01-03 22:43:00,38.0,28.0,-100.00,WNW,290,4.0,9.0,68,-99.99,,,-99.99,,2013-01-04 03:43:00,
2013-01-03 22:52:00,37.0,28.0,-100.00,WNW,295,3.0,8.0,68,-99.99,,,-99.99,,2013-01-04 03:52:00,
2013-01-03 23:02:00,37.0,28.0,-100.00,WNW,295,2.0,6.0,68,-99.99,,,-99.99,,2013-01-04 04:02:00,
2013-01-03 23:12:00,37.0,27.0,-100.00,NW,305,4.0,7.0,68,-99.99,,,-99.99,,2013-01-04 04:12:00,
2013-01-03 23:22:00,37.0,28.0,-100.00,WNW,300,4.0,5.0,69,-99.99,,,-99.99,,2013-01-04 04:22:00,
2013-01-03 23:32:00,36.0,27.0,-100.00,NW,320,2.0,4.0,69,-99.99,,,-99.99,,2013-01-04 04:32:00,
2013-01-03 23:42:00,36.0,27.0,-100.00,NNW,330,1.0,4.0,70,-99.99,,,-99.99,,2013-01-04 04:42:00,
2013-01-03 23:52:00,35.0,27.0,-100.00,NE,40,1.0,2.0,72,-99.99,,,-99.99,,2013-01-04 04:52:00,